TimeCST,TemperatureF,Dew PointF,Humidity,Sea Level PressureIn,VisibilityMPH,Wind Direction,Wind SpeedMPH,Gust SpeedMPH,PrecipitationIn,Events,Conditions,WindDirDegrees,DateUTC
12:53 AM,21.9,18.0,85,30.50,10.0,Calm,Calm,-,N/A,,Clear,0,2014-01-08 06:53:00
1:53 AM,21.0,17.1,85,30.49,10.0,NNE,3.5,-,N/A,,Clear,20,2014-01-08 07:53:00
2:53 AM,21.0,16.0,81,30.49,10.0,Calm,Calm,-,N/A,,Clear,0,2014-01-08 08:53:00
3:53 AM,21.0,15.1,78,30.48,10.0,ENE,3.5,-,N/A,,Clear,60,2014-01-08 09:53:00
4:53 AM,23.0,12.0,63,30.47,10.0,NNE,3.5,-,N/A,,Clear,30,2014-01-08 10:53:00
5:53 AM,21.9,12.0,66,30.48,10.0,NNE,4.6,-,N/A,,Clear,30,2014-01-08 11:53:00
6:53 AM,23.0,10.9,60,30.48,10.0,ENE,4.6,-,N/A,,Clear,70,2014-01-08 12:53:00
7:53 AM,26.1,10.0,51,30.50,10.0,NE,5.8,-,N/A,,Clear,50,2014-01-08 13:53:00
8:53 AM,30.0,8.1,40,30.51,10.0,East,9.2,-,N/A,,Clear,80,2014-01-08 14:53:00
9:53 AM,36.0,9.0,33,30.51,10.0,ENE,5.8,-,N/A,,Clear,70,2014-01-08 15:53:00
10:53 AM,39.9,12.0,32,30.49,10.0,ESE,6.9,-,N/A,,Clear,120,2014-01-08 16:53:00
11:53 AM,44.1,16.0,32,30.45,10.0,Calm,Calm,-,N/A,,Clear,0,2014-01-08 17:53:00
12:53 PM,46.9,21.0,36,30.41,10.0,North,-9999.0,-,N/A,,Clear,0,2014-01-08 18:53:00
1:53 PM,48.9,24.1,38,30.39,10.0,Variable,4.6,-,N/A,,Mostly Cloudy,0,2014-01-08 19:53:00
2:53 PM,50.0,27.0,41,30.38,10.0,East,5.8,-,N/A,,Partly Cloudy,90,2014-01-08 20:53:00
3:53 PM,51.1,28.0,41,30.37,10.0,SE,6.9,-,N/A,,Clear,140,2014-01-08 21:53:00
4:53 PM,48.0,27.0,44,30.37,10.0,East,3.5,-,N/A,,Overcast,90,2014-01-08 22:53:00
5:53 PM,43.0,26.1,51,30.38,10.0,East,5.8,-,N/A,,Clear,100,2014-01-08 23:53:00
6:53 PM,39.9,27.0,60,30.39,10.0,Calm,Calm,-,N/A,,Clear,0,2014-01-09 00:53:00
7:53 PM,36.0,28.0,73,30.38,10.0,ESE,4.6,-,N/A,,Clear,110,2014-01-09 01:53:00
8:53 PM,41.0,28.0,60,30.36,10.0,East,8.1,-,N/A,,Clear,100,2014-01-09 02:53:00
9:53 PM,41.0,27.0,57,30.37,10.0,East,3.5,-,N/A,,Clear,80,2014-01-09 03:53:00
10:53 PM,35.1,28.9,78,30.37,10.0,Calm,Calm,-,N/A,,Clear,0,2014-01-09 04:53:00
11:53 PM,33.1,28.0,82,30.35,10.0,Calm,Calm,-,N/A,,Clear,0,2014-01-09 05:53:00